Home   Weather   Israel   Hadera   Past weeks
Flag for Israel

Past Weather in Hadera, Israel — Yesterday and Last 2 Weeks

Currently: 79 °F. Passing clouds. (Weather station: Ben Gurion International Airport, Israel). See more current weather

Past Weather in Hadera — Graph

°F

Hadera Temperature Yesterday

Maximum temperature yesterday: 91 °F (at 12:50 pm)
Minimum temperature yesterday: 73 °F (at 6:20 am)
Average temperature yesterday: 82 °F

High & Low Weather Summary for the Past Weeks

 TemperatureHumidityPressure
High91 °F (Sep 24, 1:20 pm)89% (Sep 30, 2:20 am)30.04 "Hg (Sep 30, 2:20 am)
Low68 °F (Sep 26, 5:50 am)24% (Sep 27, 1:20 pm)29.77 "Hg (Sep 17, 9:20 pm)
Average81 °F60%29.88 "Hg
* Reported Sep 17 9:20 pm — Oct 2 9:20 pm, Hadera. Weather by CustomWeather, © 2022

Note: Actual official high and low records may vary slightly from our data, if they occured in-between our weather recording intervals... More about our weather records

Hadera Weather History for the Previous 24 Hours

Scroll right to see more
 ConditionsComfort  
Time TempWeatherWind HumidityBarometerVisibility
9:20 pm
Sun, Oct 2
79 °FPassing clouds.5 mph84%29.77 "HgN/A
8:50 pm79 °FPassing clouds.3 mph84%29.77 "HgN/A
8:20 pm81 °FPassing clouds.5 mph79%29.77 "HgN/A
7:50 pm81 °FPassing clouds.6 mph79%29.77 "HgN/A
7:20 pm81 °FPassing clouds.3 mph79%29.77 "HgN/A
6:50 pm81 °FPassing clouds.7 mph79%29.77 "HgN/A
6:20 pm81 °FPassing clouds.8 mph79%29.77 "HgN/A
5:50 pm82 °FSunny.8 mph74%29.77 "Hg10 mi
5:20 pm84 °FSunny.9 mph66%29.77 "Hg10 mi
4:50 pm84 °FSunny.8 mph66%29.77 "Hg10 mi
4:20 pm86 °FSunny.10 mph62%29.77 "Hg10 mi
3:50 pm86 °FSunny.10 mph62%29.80 "Hg10 mi
3:20 pm86 °FSunny.12 mph62%29.80 "Hg10 mi
2:50 pm86 °FSunny.12 mph62%29.80 "Hg10 mi
2:20 pm88 °FPassing clouds.12 mph59%29.80 "HgN/A
1:50 pm90 °FPassing clouds.9 mph55%29.80 "HgN/A
1:20 pm88 °FPassing clouds.10 mph59%29.83 "HgN/A
12:50 pm88 °FPassing clouds.12 mph59%29.83 "HgN/A
12:20 pm86 °FPassing clouds.10 mph62%29.86 "HgN/A
11:50 am88 °FPassing clouds.6 mph59%29.86 "HgN/A
11:20 am88 °FSunny.3 mph52%29.86 "Hg10 mi
10:20 am84 °FPassing clouds.3 mph66%29.89 "HgN/A
9:50 am82 °FScattered clouds.3 mph66%29.89 "HgN/A
9:20 am81 °FScattered clouds.3 mph74%29.89 "HgN/A
8:50 am81 °FScattered clouds.6 mph70%29.89 "HgN/A
8:20 am77 °FPartly sunny.6 mph74%29.89 "HgN/A
7:50 am75 °FPartly sunny.5 mph78%29.89 "HgN/A
7:20 am75 °FScattered clouds.6 mph78%29.89 "HgN/A
6:50 am75 °FScattered clouds.6 mph78%29.89 "HgN/A
6:20 am75 °FPassing clouds.6 mph78%29.89 "HgN/A
5:20 am75 °FPassing clouds.2 mph74%29.89 "HgN/A
4:50 am75 °FPassing clouds.2 mph78%29.89 "HgN/A
4:20 am75 °FClear.6 mph78%29.89 "Hg10 mi
2:20 am77 °FPassing clouds.5 mph74%29.89 "HgN/A
1:20 am77 °FPassing clouds.5 mph74%29.92 "HgN/A
12:50 am79 °FClear.3 mph70%29.92 "Hg10 mi
11:50 pm
Sat, Oct 1
79 °FClear.5 mph74%29.89 "Hg10 mi
11:20 pm79 °FClear.2 mph74%29.89 "Hg10 mi
10:50 pm79 °FClear.2 mph74%29.92 "Hg10 mi
10:20 pm81 °FClear.2 mph70%29.92 "Hg10 mi
Weather by CustomWeather, © 2022

See weather overview